TAX1123 VTBD-VTCN

Flight info

Callsign TAX1123
Flight time 0h 55m
Altitude 34000
Route UGUVO3A UGUVO Y27 IBUBU W25 NAN
Aircraft A339/H-SADE1E2E3GHIJ3J5M1P2RWXY/LB2D1

Departure

Time 2026-05-09 00:28
Airport Don Mueang International Airport (VTBD)

Arrival

Time 2026-05-09 01:23
Airport Nan Airport (VTCN)
Time Latitude Longitude Altitude Speed Heading
2026-05-09 00:12 13.92408 100.60757 40 ft 0 kts 118°
2026-05-09 00:19 13.92413 100.60749 41 ft 2 kts 118°
2026-05-09 00:20 13.92420 100.60735 41 ft 2 kts 118°
2026-05-09 00:20 13.92427 100.60722 41 ft 2 kts 112°
2026-05-09 00:20 13.92429 100.60704 42 ft 2 kts 73°
2026-05-09 00:20 13.92421 100.60689 41 ft 2 kts 43°
2026-05-09 00:21 13.92408 100.60680 41 ft 2 kts 24°
2026-05-09 00:21 13.92394 100.60674 41 ft 2 kts 28°
2026-05-09 00:21 13.92381 100.60666 41 ft 1 kts 29°
2026-05-09 00:21 13.92380 100.60665 41 ft 0 kts 29°
2026-05-09 00:24 13.92385 100.60668 41 ft 2 kts 29°
2026-05-09 00:24 13.92411 100.60683 41 ft 5 kts 28°
2026-05-09 00:24 13.92450 100.60705 42 ft 6 kts 28°
2026-05-09 00:24 13.92497 100.60731 43 ft 7 kts 28°
2026-05-09 00:25 13.92548 100.60760 44 ft 8 kts 29°
2026-05-09 00:25 13.92601 100.60790 45 ft 8 kts 29°
2026-05-09 00:25 13.92652 100.60819 47 ft 7 kts 28°
2026-05-09 00:25 13.92703 100.60847 48 ft 8 kts 28°
2026-05-09 00:26 13.92746 100.60883 47 ft 7 kts 74°
2026-05-09 00:26 13.92725 100.60955 43 ft 13 kts 120°
2026-05-09 00:26 13.92672 100.61051 38 ft 17 kts 119°
2026-05-09 00:26 13.92612 100.61163 33 ft 12 kts 119°
2026-05-09 00:27 13.92536 100.61185 32 ft 13 kts 206°
2026-05-09 00:27 13.92341 100.61074 31 ft 64 kts 209°
2026-05-09 00:27 13.91736 100.60735 31 ft 129 kts 208°
2026-05-09 00:27 13.90763 100.60193 81 ft 176 kts 210°
2026-05-09 00:28 13.89613 100.59556 716 ft 177 kts 210°
2026-05-09 00:28 13.88492 100.58923 1454 ft 175 kts 210°
2026-05-09 00:28 13.87450 100.58158 1996 ft 182 kts 238°
2026-05-09 00:28 13.87214 100.56844 2356 ft 192 kts 286°
2026-05-09 00:29 13.87790 100.55448 2751 ft 208 kts 299°
2026-05-09 00:29 13.88511 100.54049 3151 ft 226 kts 298°
2026-05-09 00:29 13.89273 100.52468 3589 ft 244 kts 296°
2026-05-09 00:29 13.90028 100.50769 4025 ft 263 kts 295°
2026-05-09 00:30 13.90783 100.48977 4507 ft 278 kts 294°
2026-05-09 00:30 13.91558 100.47083 5226 ft 284 kts 294°
2026-05-09 00:30 13.92335 100.45154 5962 ft 288 kts 294°
2026-05-09 00:30 13.93107 100.43225 6655 ft 293 kts 293°
2026-05-09 00:31 13.93918 100.41200 7404 ft 297 kts 293°
2026-05-09 00:31 13.94701 100.39240 8126 ft 300 kts 293°
2026-05-09 00:31 13.95505 100.37228 8853 ft 303 kts 293°
2026-05-09 00:31 13.96330 100.35216 9563 ft 305 kts 298°
2026-05-09 00:32 13.97661 100.33524 10212 ft 306 kts 325°
2026-05-09 00:32 13.99618 100.32610 10654 ft 314 kts 351°
2026-05-09 00:32 14.01812 100.32367 11170 ft 322 kts 356°
2026-05-09 00:32 14.04090 100.32147 11842 ft 327 kts 356°
2026-05-09 00:33 14.06370 100.31908 12531 ft 330 kts 355°
2026-05-09 00:33 14.08707 100.31647 13220 ft 334 kts 355°
2026-05-09 00:33 14.11010 100.31382 13880 ft 337 kts 354°
2026-05-09 00:33 14.13369 100.31107 14524 ft 341 kts 354°
2026-05-09 00:34 14.15752 100.30828 15148 ft 345 kts 354°
2026-05-09 00:34 14.18121 100.30553 15764 ft 348 kts 354°
2026-05-09 00:34 14.20557 100.30269 16388 ft 351 kts 354°
2026-05-09 00:34 14.23008 100.29983 16994 ft 354 kts 354°
2026-05-09 00:35 14.25461 100.29696 17576 ft 358 kts 354°
2026-05-09 00:35 14.27936 100.29406 18150 ft 361 kts 354°
2026-05-09 00:35 14.30443 100.29112 18719 ft 365 kts 354°
2026-05-09 00:35 14.32982 100.28815 19287 ft 368 kts 354°
2026-05-09 00:36 14.35574 100.28511 19837 ft 372 kts 354°
2026-05-09 00:36 14.38143 100.28211 20377 ft 375 kts 354°
2026-05-09 00:36 14.40764 100.27904 20914 ft 378 kts 354°
2026-05-09 00:36 14.43393 100.27596 21421 ft 381 kts 354°
2026-05-09 00:37 14.46052 100.27203 21917 ft 384 kts 350°
2026-05-09 00:37 14.48677 100.26618 22415 ft 387 kts 346°
2026-05-09 00:37 14.51278 100.25845 22918 ft 389 kts 343°
2026-05-09 00:37 14.53900 100.24997 23413 ft 392 kts 342°
2026-05-09 00:38 14.56508 100.24146 23888 ft 395 kts 343°
2026-05-09 00:38 14.59169 100.23280 24358 ft 398 kts 343°
2026-05-09 00:38 14.61894 100.22398 24835 ft 400 kts 343°
2026-05-09 00:38 14.64689 100.21627 25295 ft 403 kts 348°
2026-05-09 00:39 14.67543 100.21147 25760 ft 405 kts 354°
2026-05-09 00:39 14.70415 100.20947 26204 ft 407 kts 358°
2026-05-09 00:39 14.73257 100.20847 26635 ft 409 kts 359°
2026-05-09 00:39 14.76123 100.20760 27058 ft 412 kts 359°
2026-05-09 00:40 14.78982 100.20673 27467 ft 414 kts 359°
2026-05-09 00:40 14.81965 100.20578 27893 ft 416 kts 359°
2026-05-09 00:40 14.84898 100.20483 28308 ft 418 kts 359°
2026-05-09 00:41 14.90926 100.20281 29158 ft 422 kts 359°
2026-05-09 00:41 14.93985 100.20178 29575 ft 424 kts 359°
2026-05-09 00:41 14.97009 100.20077 29978 ft 427 kts 359°
2026-05-09 00:41 14.99983 100.19974 30365 ft 429 kts 359°
2026-05-09 00:42 15.03005 100.19872 30758 ft 431 kts 359°
2026-05-09 00:42 15.06123 100.19766 31261 ft 430 kts 359°
2026-05-09 00:42 15.09166 100.19623 31781 ft 429 kts 356°
2026-05-09 00:42 15.12148 100.19315 32272 ft 428 kts 353°
2026-05-09 00:43 15.15082 100.18833 32700 ft 429 kts 349°
2026-05-09 00:43 15.18044 100.18157 33113 ft 431 kts 346°
2026-05-09 00:43 15.20916 100.17314 33523 ft 433 kts 343°
2026-05-09 00:43 15.23830 100.16356 33867 ft 435 kts 343°
2026-05-09 00:44 15.29592 100.14426 33882 ft 436 kts 342°
2026-05-09 00:44 15.35392 100.12484 33885 ft 436 kts 343°
2026-05-09 00:45 15.41210 100.10541 33886 ft 435 kts 342°
2026-05-09 00:45 15.47003 100.08607 33887 ft 435 kts 342°
2026-05-09 00:46 15.52793 100.06673 33889 ft 435 kts 342°
2026-05-09 00:46 15.58699 100.04700 33890 ft 436 kts 342°
2026-05-09 00:47 15.64746 100.02677 33896 ft 436 kts 342°
2026-05-09 00:47 15.70921 100.00610 33899 ft 437 kts 342°
2026-05-09 00:48 15.77111 99.98537 33900 ft 437 kts 342°
2026-05-09 00:48 15.83282 99.96467 33900 ft 437 kts 342°
2026-05-09 00:49 15.89359 99.94458 33899 ft 437 kts 344°
2026-05-09 00:49 15.95467 99.93072 33900 ft 437 kts 352°
2026-05-09 00:50 16.01610 99.92530 33905 ft 437 kts 359°
2026-05-09 00:50 16.07928 99.92796 33903 ft 437 kts
2026-05-09 00:51 16.14147 99.93308 33904 ft 437 kts
2026-05-09 00:51 16.20412 99.93823 33907 ft 437 kts
2026-05-09 00:52 16.26638 99.94327 33909 ft 437 kts
2026-05-09 00:52 16.33020 99.94844 33910 ft 436 kts
2026-05-09 00:53 16.39311 99.95575 33911 ft 436 kts
2026-05-09 00:53 16.45707 99.96365 33913 ft 435 kts
2026-05-09 00:54 16.52040 99.97147 33914 ft 434 kts
2026-05-09 00:54 16.58282 99.97920 33917 ft 431 kts
2026-05-09 00:55 16.64566 99.98694 33693 ft 431 kts
2026-05-09 00:55 16.67651 99.99072 33391 ft 429 kts
2026-05-09 00:55 16.70764 99.99456 33082 ft 427 kts
2026-05-09 00:56 16.73803 99.99831 32761 ft 424 kts
2026-05-09 00:56 16.76783 100.00198 32434 ft 424 kts
2026-05-09 00:56 16.79805 100.00570 32004 ft 425 kts
2026-05-09 00:56 16.82847 100.00945 31481 ft 426 kts
2026-05-09 00:57 16.85854 100.01316 30918 ft 427 kts
2026-05-09 00:57 16.88982 100.01703 30313 ft 429 kts
2026-05-09 00:57 16.92063 100.02084 29842 ft 427 kts
2026-05-09 00:57 16.95094 100.02458 29405 ft 424 kts
2026-05-09 00:58 16.98179 100.02840 28961 ft 422 kts
2026-05-09 00:58 17.01229 100.03220 28513 ft 420 kts
2026-05-09 00:58 17.04283 100.03596 28079 ft 419 kts
2026-05-09 00:58 17.07266 100.03964 27669 ft 417 kts
2026-05-09 00:59 17.10216 100.04328 27287 ft 414 kts
2026-05-09 00:59 17.13164 100.04692 26904 ft 411 kts
2026-05-09 00:59 17.16108 100.05057 26517 ft 409 kts
2026-05-09 00:59 17.19106 100.05428 26128 ft 406 kts
2026-05-09 01:00 17.22034 100.05711 25756 ft 403 kts
2026-05-09 01:00 17.24952 100.05806 25388 ft 400 kts
2026-05-09 01:00 17.27875 100.05824 25027 ft 397 kts 360°
2026-05-09 01:00 17.30754 100.05830 24678 ft 395 kts 359°
2026-05-09 01:01 17.33651 100.05834 24312 ft 392 kts 360°
2026-05-09 01:01 17.36534 100.05841 23939 ft 390 kts 360°
2026-05-09 01:01 17.39364 100.05849 23593 ft 387 kts 360°
2026-05-09 01:01 17.42235 100.05859 23231 ft 385 kts 360°
2026-05-09 01:02 17.45032 100.05868 22863 ft 384 kts 359°
2026-05-09 01:02 17.47859 100.05878 22494 ft 382 kts 360°
2026-05-09 01:02 17.50685 100.05887 22140 ft 380 kts 360°
2026-05-09 01:02 17.53508 100.05896 21780 ft 378 kts 360°
2026-05-09 01:03 17.56157 100.05906 21447 ft 377 kts 360°
2026-05-09 01:03 17.58800 100.05915 21110 ft 375 kts 360°
2026-05-09 01:03 17.61453 100.05925 20778 ft 374 kts 360°
2026-05-09 01:03 17.64172 100.05934 20406 ft 372 kts 360°
2026-05-09 01:04 17.66822 100.05944 20077 ft 371 kts 359°
2026-05-09 01:04 17.69529 100.05953 19721 ft 369 kts 359°
2026-05-09 01:04 17.72225 100.05963 19371 ft 367 kts 359°
2026-05-09 01:04 17.74931 100.05972 19004 ft 366 kts 359°
2026-05-09 01:05 17.77556 100.05981 18652 ft 365 kts 359°
2026-05-09 01:05 17.80231 100.05989 18298 ft 363 kts 359°
2026-05-09 01:05 17.85579 100.06226 17538 ft 362 kts
2026-05-09 01:06 17.88071 100.06852 17179 ft 362 kts 18°
2026-05-09 01:06 17.90469 100.07734 16836 ft 360 kts 20°
2026-05-09 01:06 17.92838 100.08659 16513 ft 358 kts 20°
2026-05-09 01:06 17.95161 100.09573 16214 ft 356 kts 20°
2026-05-09 01:07 17.97503 100.10487 15888 ft 354 kts 20°
2026-05-09 01:07 17.99824 100.11387 15564 ft 352 kts 20°
2026-05-09 01:07 18.02130 100.12277 15232 ft 351 kts 20°
2026-05-09 01:07 18.04428 100.13162 14904 ft 349 kts 20°
2026-05-09 01:08 18.06707 100.14040 14586 ft 347 kts 21°
2026-05-09 01:08 18.08994 100.14919 14252 ft 346 kts 21°
2026-05-09 01:08 18.11258 100.15793 13918 ft 344 kts 22°
2026-05-09 01:08 18.13421 100.16881 13577 ft 342 kts 32°
2026-05-09 01:09 18.15350 100.18308 13250 ft 339 kts 41°
2026-05-09 01:09 18.17169 100.19933 12924 ft 337 kts 43°
2026-05-09 01:09 18.18917 100.21548 12631 ft 334 kts 43°
2026-05-09 01:09 18.20664 100.23164 12324 ft 332 kts 43°
2026-05-09 01:10 18.22422 100.24778 12009 ft 330 kts 43°
2026-05-09 01:10 18.24156 100.26366 11707 ft 328 kts 43°
2026-05-09 01:10 18.25873 100.27932 11407 ft 326 kts 43°
2026-05-09 01:10 18.27583 100.29491 11095 ft 325 kts 43°
2026-05-09 01:11 18.29307 100.31062 10800 ft 322 kts 43°
2026-05-09 01:11 18.30994 100.32600 10506 ft 320 kts 43°
2026-05-09 01:11 18.32692 100.34148 10208 ft 318 kts 43°
2026-05-09 01:11 18.34360 100.35669 10044 ft 311 kts 42°
2026-05-09 01:12 18.35980 100.37143 10023 ft 299 kts 42°
2026-05-09 01:12 18.37536 100.38573 9822 ft 295 kts 46°
2026-05-09 01:12 18.38793 100.40237 9524 ft 292 kts 62°
2026-05-09 01:12 18.39609 100.42199 9248 ft 289 kts 72°
2026-05-09 01:13 18.40267 100.44203 8964 ft 288 kts 73°
2026-05-09 01:13 18.40911 100.46228 8650 ft 289 kts 72°
2026-05-09 01:13 18.41549 100.48216 8365 ft 288 kts 72°
2026-05-09 01:13 18.42204 100.50227 8086 ft 287 kts 72°
2026-05-09 01:14 18.42855 100.52210 7809 ft 286 kts 72°
2026-05-09 01:14 18.43504 100.54181 7538 ft 285 kts 72°
2026-05-09 01:14 18.44158 100.56163 7264 ft 283 kts 72°
2026-05-09 01:14 18.44801 100.58115 7047 ft 280 kts 71°
2026-05-09 01:15 18.45434 100.60027 7014 ft 269 kts 72°
2026-05-09 01:15 18.46037 100.61852 7004 ft 257 kts 72°
2026-05-09 01:15 18.46615 100.63602 7001 ft 246 kts 72°
2026-05-09 01:15 18.47174 100.65295 6999 ft 235 kts 72°
2026-05-09 01:16 18.47706 100.66892 6995 ft 231 kts 69°
2026-05-09 01:16 18.48642 100.68259 6970 ft 236 kts 34°
2026-05-09 01:16 18.50203 100.68835 6641 ft 243 kts
2026-05-09 01:17 18.53691 100.69006 5850 ft 246 kts
2026-05-09 01:17 18.55400 100.69112 5524 ft 240 kts
2026-05-09 01:17 18.57072 100.69254 5206 ft 234 kts
2026-05-09 01:17 18.58671 100.69578 4917 ft 231 kts 19°
2026-05-09 01:18 18.60221 100.70154 4704 ft 230 kts 21°
2026-05-09 01:18 18.61724 100.70757 4439 ft 222 kts 22°
2026-05-09 01:18 18.63198 100.71352 4228 ft 211 kts 22°
2026-05-09 01:18 18.64578 100.71904 4043 ft 201 kts 22°
2026-05-09 01:19 18.65911 100.72433 4006 ft 191 kts 22°
2026-05-09 01:19 18.67224 100.72957 3670 ft 197 kts 22°
2026-05-09 01:19 18.68540 100.73480 3278 ft 198 kts 21°
2026-05-09 01:19 18.69852 100.74001 2939 ft 189 kts 21°
2026-05-09 01:20 18.71080 100.74488 2664 ft 179 kts 21°
2026-05-09 01:20 18.72240 100.74947 2419 ft 171 kts 21°
2026-05-09 01:20 18.73350 100.75387 2184 ft 164 kts 21°
2026-05-09 01:20 18.74410 100.75806 1974 ft 157 kts 21°
2026-05-09 01:21 18.75428 100.76209 1760 ft 151 kts 21°
2026-05-09 01:21 18.76405 100.76596 1531 ft 147 kts 21°
2026-05-09 01:21 18.77358 100.76977 1287 ft 145 kts 21°
2026-05-09 01:21 18.78306 100.77356 1032 ft 144 kts 21°
2026-05-09 01:22 18.79232 100.77723 849 ft 139 kts 20°
2026-05-09 01:22 18.80166 100.78093 708 ft 137 kts 21°
2026-05-09 01:22 18.80915 100.78391 714 ft 80 kts 21°
2026-05-09 01:22 18.81360 100.78567 716 ft 54 kts 20°
2026-05-09 01:23 18.81593 100.78666 717 ft 14 kts 43°
2026-05-09 01:23 18.81606 100.78762 715 ft 11 kts 109°
2026-05-09 01:23 18.81565 100.78805 714 ft 8 kts 179°
2026-05-09 01:23 18.81503 100.78786 714 ft 9 kts 200°
2026-05-09 01:24 18.81431 100.78758 714 ft 11 kts 201°
2026-05-09 01:24 18.81349 100.78725 714 ft 12 kts 201°
2026-05-09 01:24 18.81262 100.78690 714 ft 13 kts 200°
2026-05-09 01:24 18.81167 100.78653 714 ft 14 kts 200°
2026-05-09 01:25 18.81071 100.78622 714 ft 13 kts 183°
2026-05-09 01:25 18.80976 100.78641 713 ft 13 kts 164°
2026-05-09 01:25 18.80894 100.78655 713 ft 10 kts 188°
2026-05-09 01:25 18.80823 100.78625 713 ft 11 kts 212°
2026-05-09 01:26 18.80751 100.78576 713 ft 12 kts 212°
2026-05-09 01:26 18.80674 100.78528 712 ft 13 kts 209°
2026-05-09 01:26 18.80588 100.78477 711 ft 14 kts 210°
2026-05-09 01:26 18.80491 100.78418 710 ft 16 kts 210°
2026-05-09 01:27 18.80404 100.78366 709 ft 8 kts 209°
2026-05-09 01:27 18.80365 100.78343 708 ft 7 kts 209°
2026-05-09 01:27 18.80331 100.78344 708 ft 2 kts 136°
2026-05-09 01:27 18.80328 100.78349 708 ft 1 kts 114°
2026-05-09 01:28 18.80319 100.78371 709 ft 2 kts 113°
2026-05-09 01:28 18.80316 100.78380 710 ft 0 kts 112°